Regional Weather Roundup
Issued by NWS San Angelo, TX

Home | Current Version | Previous Version | Text Only | Print | Product List | Glossary On
Versions: 1 2 3 4 5 6 7 8 9 10 11 12 13 14 15 16 17 18 19 20 21 22 23 24 25 26 27 28 29 30 31 32 33 34 35 36 37 38 39 40 41 42 43 44 45 46 47 48 49 50
000
ASUS44 KSJT 041411
RWRSJT
WEST CENTRAL TEXAS REGIONAL WEATHER ROUNDUP
NATIONAL WEATHER SERVICE SAN ANGELO TX
900 AM CDT FRI SEP 04 2015

NOTE: "FAIR" INDICATES FEW OR NO CLOUDS BELOW 12,000 FEET WITH NO
SIGNIFICANT WEATHER AND/OR OBSTRUCTIONS TO VISIBILITY.

TXZ049-054-064>066-071>073-076>078-098-099-113-114-127-128-139-140-
154-155-168>170-041500
...LOCATIONS ACROSS WEST CENTRAL TEXAS...

CITY           SKY/WX    TMP DP  RH WIND       PRES   REMARKS
SAN ANGELO     SUNNY     77  68  73 S8        29.97R
ABILENE        SUNNY     78  67  68 S14       29.98R
DYESS AFB      SUNNY     80  68  67 S10       29.96R
JUNCTION       SUNNY     76  69  79 VRB3      29.98R
SWEETWATER     SUNNY     77  65  65 S14       30.02R
BROWNWOOD      SUNNY     77  70  78 SE7       29.98R
COLEMAN        SUNNY     77  69  75 S8        29.99S
SONORA         MOSUNNY   75  70  83 S8        30.03R
OZONA          PTSUNNY   75  68  78 S12G17    30.02R
BRADY          MOSUNNY   77  72  83 S6        29.98R
$$

TEXAS PANHANDLE/OKLAHOMA PANHANDLE

CITY           SKY/WX    TMP DP  RH WIND       PRES   REMARKS
AMARILLO       MOSUNNY   75  56  51 S14       30.01R
BORGER         MOSUNNY   77  58  51 S9        29.96R
CANADIAN       SUNNY     75  64  67 SW7       29.96R
DALHART        MOSUNNY   71  54  54 S8        30.00R
DUMAS          MOSUNNY   73  54  50 S9        29.98R
GUYMON         NOT AVBL
HEREFORD       MOSUNNY   75  57  53 SW6       30.02R
PAMPA          MOSUNNY   73  60  63 S8        30.00R
PERRYTON       SUNNY     77  60  54 S14G20    29.96R
$$

SOUTHERN PANHANDLE/SOUTH PLAINS/ROLLING PLAINS

CITY           SKY/WX    TMP DP  RH WIND       PRES   REMARKS
LUBBOCK        MOSUNNY   72  57  59 S8        30.01R
SNYDER         SUNNY     74  63  69 S9        30.00R
CHILDRESS      SUNNY     75  63  66 S12       29.96R
SEMINOLE       SUNNY     71  55  57 S6        30.03R
$$

PERMIAN BASIN

CITY           SKY/WX    TMP DP  RH WIND       PRES   REMARKS
MIDLAND          N/A     74  61  63 S8        29.99R
ODESSA         SUNNY     75  63  66 S13       30.00R
WINK           SUNNY     74  61  63 SE13      29.96R
$$

FAR WEST/SOUTHWEST MOUNTAINS/TRANS PECOS

CITY           SKY/WX    TMP DP  RH WIND       PRES   REMARKS
ALPINE         SUNNY     74  55  50 S3        30.12R
DRYDEN           N/A     77  68  73 VRB3      29.96R
EL PASO        PTSUNNY   77  58  51 SE3       30.01R
FORT STOCKTON  SUNNY     75  61  61 S13       29.98R
GUADALUPE PASS MOSUNNY   71  51  49 S6        30.13R
MARFA          SUNNY     66  54  63 CALM      30.11R
PECOS          SUNNY     72  55  53 E8        29.95R
$$

DALLAS/FORT WORTH METROPLEX

CITY           SKY/WX    TMP DP  RH WIND       PRES   REMARKS
DFW AIRPORT    MOSUNNY   82  71  69 S7        29.96R
FTW MEACHAM    SUNNY     82  72  71 S7        29.96R
DAL-EXECUTIVE  MOSUNNY   79  71  76 S6        29.97R
GRAND PRAIRIE  SUNNY     81  72  74 S5        29.98R
ADDISON        MOSUNNY   81  70  69 S7        29.98R
MESQUITE       SUNNY     79  73  83 S7        29.97R
LANCASTER      SUNNY     79  70  73 S5        29.98R
$$

NORTH CENTRAL TEXAS

CITY           SKY/WX    TMP DP  RH WIND       PRES   REMARKS
SHRMAN/DENISON SUNNY     83  72  70 S7        29.99R
GAINESVILLE    SUNNY     80  70  70 S8        29.98S
BRIDGEPORT     SUNNY     79  71  76 S7        29.98S
DENTON         SUNNY     81  71  71 S10       29.96R
WAXAHACHIE     SUNNY     79  72  80 S6        29.98S
GRANBURY       SUNNY     81  71  72 S5        29.98R
$$

WESTERN NORTH TEXAS

CITY           SKY/WX    TMP DP  RH WIND       PRES   REMARKS
WICHITA FALLS  SUNNY     79  68  69 S9        29.95R
VERNON         SUNNY     79  61  54 S9        29.96R
BRECKENRIDGE   SUNNY     81  67  63 S6        29.96R
COMANCHE       SUNNY     76  72  85 S3        29.98R
$$

CENTRAL AND SOUTH CENTRAL TEXAS

CITY           SKY/WX    TMP DP  RH WIND       PRES   REMARKS
AUSTIN/BERGSTM PTSUNNY   78  74  87 S6        29.95R
WACO           SUNNY     80  72  76 S7        29.96R
HILLSBORO      SUNNY     79  71  76 S7        29.97R
TEMPLE         SUNNY     79  72  78 SE8       29.96R
KILLEEN-GRAY   MOSUNNY   78  73  83 S9        29.96R
FORT HOOD      PTSUNNY   79  73  81 S8        29.95R
GEORGETOWN     CLOUDY    79  72  78 SE8       29.98R
LAGO VISTA     CLOUDY    77  73  86 S5        29.99R
SAN MARCOS     CLOUDY    77  75  94 S5        29.97R
NEW BRAUNFELS  PTSUNNY   81  75  82 S6        29.94S
RANDOLPH AFB   MOSUNNY   81  73  78 VRB6      29.96R
SAN ANTONIO    PTSUNNY   81  73  76 S6        29.95S
STINSON        PTSUNNY   80  75  84 SE6       29.93R
PLEASANTON     NOT AVBL
LA GRANGE      CLOUDY    77  77  99 CALM      29.94R FOG
GIDDINGS       PTSUNNY   77  75  95 SE3       29.99S
$$

EAST TEXAS

CITY           SKY/WX    TMP DP  RH WIND       PRES   REMARKS
PARIS          SUNNY     81  66  61 S9        29.99R
CLARKSVILLE    NOT AVBL
TYLER          SUNNY     80  73  79 S6        29.99R
LONGVIEW       SUNNY     81  74  79 S5        29.98S
PALESTINE      SUNNY     79  75  88 SE3       29.99R
NACOGDOCHES    SUNNY     79  73  83 CALM      29.99R
$$

TEXAS HILL COUNTRY AND EDWARDS PLATEAU

CITY           SKY/WX    TMP DP  RH WIND       PRES   REMARKS
LLANO          SUNNY     79  72  78 S5        30.00R
HORSESHOE BAY  PTSUNNY   79  72  79 S3        29.97R
KERRVILLE      CLOUDY    76  73  87 S7        29.98S
FREDERICKSBRG  CLOUDY    76  69  76 S7        29.99R
ROCKSPRINGS    PTSUNNY   75  70  83 SE8       30.03R
HONDO          CLOUDY    78  74  87 SE7       29.97R
UVALDE         MOSUNNY   78  73  86 E8        29.95R
DEL RIO        SUNNY     79  71  76 E10       29.91R
$$

SOUTHEAST TEXAS

CITY           SKY/WX    TMP DP  RH WIND       PRES   REMARKS
COLLEGE STN    SUNNY     80  75  84 CALM      29.96S
CALDWELL       CLOUDY    75  75 100 CALM      29.99S
CROCKETT       MOSUNNY   77  73  88 SE6       30.01S
BRENHAM        CLOUDY    77  77 100 CALM      29.97R FOG
HUNTSVILLE     PTSUNNY   82  75  79 VRB5      29.98R
CONROE         MOSUNNY   79  74  84 E3        29.98R
HOUSTON BUSH   MOSUNNY   82  77  84 NE3       29.96R
HOUSTON HOBBY  MOSUNNY   83  76  79 CALM      29.95R
PERLAND        PTSUNNY   81  76  84 CALM      29.97R
WHARTON        SUNNY     80  77  91 CALM      29.96R
$$

THE UPPER TEXAS COAST

CITY           SKY/WX    TMP DP  RH WIND       PRES   REMARKS
ORANGE         MOSUNNY  N/A N/A N/A CALM      29.99S
PORT ARTHUR    MOSUNNY   82  75  79 N3        29.96R
GALVESTON      PTSUNNY   85  75  72 CALM      29.96R
ANGLETON       MOSUNNY   83  78  85 CALM      29.95R
BAY CITY       SUNNY     81  80  96 CALM      29.94S
$$

TEXAS COASTAL BEND, RIO GRANDE PLAINS DEEP SOUTH TEXAS

CITY           SKY/WX    TMP DP  RH WIND       PRES   REMARKS
VICTORIA       MOSUNNY   79  79 100 NE3       29.94R
BEEVILLE       PTSUNNY   75  74  98 CALM      29.93R
ROCKPORT       SUNNY     84  76  76 S3        29.92R
PORT ARANSAS   MOSUNNY   85  76  73 S8        29.92R
PORT LAVACA    RAIN      80  77  89 CALM      29.93R
CORPUS CHRISTI MOSUNNY   83  76  79 S7        29.92R
KINGSVILLE NAS MOSUNNY   84  80  88 SE10      29.91R
COTULLA        MOSUNNY   82  75  79 SE9       29.92R
LAREDO         CLOUDY    81  75  81 S12       29.91R
BROWNSVILLE    SUNNY     82  78  88 SE7       29.89S
PORT ISABEL    MOSUNNY   85  79  82 SE8       29.89R
HEBBRONVILLE   NOT AVBL
MCALLEN        MOSUNNY   82  77  84 SE7       29.90R
WESLACO        PTSUNNY   82  76  84 SE5       29.89R
FALFURRIAS     SUNNY     81  76  85 SE6       29.90R
EDINBURG       PTSUNNY   83  77  83 SE8       29.90R
$$



USA.gov is the U.S. government's official web portal to all federal, state and local government web resources and services.